Kaunas International Airport

Airport
ICAO code: 
EYKA
IATA Code: 
KUN
Summary
ICAO Region: 
EUR
Territory: 
Location: 
Karmėlava, Trakai
Serving: 
Kaunas
Elevation: 
256 ft
Coordinates: 
Aerial View: 
54° 57' 52.524" N, 24° 4' 29.748" E
Metar
Observation
EYKA 081020Z 08006KT CAVOK M12/M15 Q1020
Station
Kaunas
Date/Time
2021-12-08 10:20:00
Wind direction
80°
Wind speed
06 kts
Lowest cloud amount
clouds and visibility OK
Temperature
-12°C
Dew point
-15°C
Humidity
78%
QNH
1020 hPa
Weather condition
n/a

Kaunas International Airport, Kaunas, Lithuania is the second busiest civil airport in Lithuania after Vilnius Airport.

Climatology

Humid continental climate (Köppen climate classification Dfb)

Runways

Designator Length Width Surface Rops
8/26 3150 45 ASP Yes/Yes
Airport map: 
Aerial View: 

SKYbrary Partners:

Safety knowledge contributed by: